RH
18 19 18 18 18 19 26 30 26 28 34 38 42 45 61 90 70 68 64 48 43 40 42 44 42 40 40 50 65 70 61 44 39 41 29 25 24 24 9 4 3 2 2 2 1
24 20 20 19 20 24 35 57 61 50 48 51 58 60 100 95 76 71 64 50 42 42 45 48 37 45 45 54 68 80 61 39 37 34 25 22 22 14 5 3 2 2 2 1 1
57 39 29 34 41 49 63 56 83 92 88 77 71 89 100 80 81 63 54 50 41 47 54 51 48 42 59 67 93 84 49 40 40 36 24 21 19 7 4 3 2 2 1 1 1
66 56 59 56 59 66 69 78 85 92 96 89 98 100 84 85 70 78 68 58 53 52 70 50 66 72 81 100 100 63 62 44 40 33 23 21 15 6 4 3 2 1 1 1 1
99 79 70 54 62 66 79 88 86 88 93 82 100 86 90 91 91 85 73 60 49 62 70 79 88 61 87 100 64 58 51 48 40 29 20 20 12 5 4 3 2 2 1 1 1
100 100 100 89 69 66 86 98 99 100 100 100 100 100 100 100 90 73 64 59 65 81 80 100 88 99 100 62 59 58 50 47 36 22 25 22 9 5 4 2 2 2 2 2 1
100 100 89 100 98 82 98 98 100 100 100 100 100 100 100 85 81 83 76 76 90 79 100 100 97 100 82 61 76 65 51 46 26 23 25 20 9 5 4 2 2 2 2 2 2
100 100 100 89 100 100 100 100 100 100 100 100 100 99 100 99 86 85 81 95 100 95 100 100 91 85 74 85 68 65 51 38 26 24 25 22 10 6 4 2 2 2 2 2 2
98 97 100 100 100 84 100 100 92 100 100 100 99 100 89 99 100 100 100 100 100 100 100 81 91 76 98 79 74 55 50 32 25 35 30 21 12 6 4 2 2 2 2 2 2
100 100 100 100 100 91 100 100 100 98 100 99 100 100 100 99 100 100 100 100 100 100 92 83 88 94 94 84 69 54 45 33 35 31 28 19 12 6 3 3 2 2 2 2 2
57 100 100 100 100 100 100 100 100 100 87 82 100 92 100 100 98 86 96 100 100 92 100 90 81 72 96 90 55 56 38 40 36 35 27 19 12 6 3 3 2 2 2 2 2
34 100 100 100 100 100 100 100 100 100 94 100 100 100 98 100 100 100 100 100 100 100 97 91 86 100 95 78 68 54 37 55 37 36 24 18 10 5 4 3 2 2 2 2 2
34 100 100 100 100 100 100 100 100 100 100 100 100 100 100 99 100 100 99 100 100 91 94 89 91 88 54 73 55 49 56 55 44 34 23 18 9 6 3 3 2 3 3 2 2
30 93 100 100 100 100 100 100 100 100 94 98 100 100 100 100 100 100 100 100 99 100 92 87 90 75 74 74 73 67 56 52 45 28 22 16 10 6 3 3 2 3 3 3 2
18 66 100 100 100 100 100 100 100 100 100 95 83 93 100 98 100 99 92 100 100 97 90 84 81 86 81 76 72 90 60 49 39 25 22 17 10 6 3 3 3 3 3 3 3
16 26 100 100 100 100 100 100 100 100 100 97 98 100 97 97 100 95 98 92 99 95 90 84 99 100 98 84 91 78 62 46 35 24 21 15 9 7 4 3 3 3 4 4 3
14 27 86 100 100 100 100 100 100 100 100 100 100 92 88 100 95 94 93 90 71 100 97 95 100 100 100 100 93 76 58 39 31 23 20 17 10 8 4 3 3 4 5 4 4
13 20 28 100 100 100 100 100 100 100 100 100 100 99 100 100 100 100 100 100 94 100 100 100 100 100 100 90 81 68 49 32 40 30 22 19 10 10 4 4 4 4 6 5 5
13 13 23 31 100 100 100 100 100 100 100 100 100 100 93 100 100 100 100 100 100 100 100 100 100 100 100 90 74 63 47 36 48 40 24 18 11 9 4 4 4 4 6 5 6
14 14 20 23 32 63 99 100 100 100 100 100 100 100 100 100 100 100 100 100 100 100 100 100 100 100 100 89 72 51 41 52 56 39 27 18 12 10 5 4 4 5 7 6 6
19 24 38 42 39 32 33 78 100 100 100 100 100 100 100 100 100 98 100 100 100 100 100 100 100 100 100 75 61 45 60 64 67 40 24 18 17 10 6 4 4 6 8 8 8
25 28 48 45 38 35 32 34 57 80 98 100 100 100 94 87 77 99 100 100 100 100 100 100 100 100 77 72 60 58 64 79 63 41 31 18 17 11 8 4 5 6 9 9 8
27 34 45 42 30 34 36 34 35 39 53 62 92 89 92 100 99 81 100 100 100 100 100 100 100 93 70 79 72 74 62 88 59 42 30 20 15 10 9 5 5 6 9 11 9
28 37 47 47 42 40 37 40 47 45 72 64 98 100 100 100 84 100 100 100 100 100 100 100 95 76 80 84 85 91 75 82 59 40 29 22 19 8 10 5 4 6 9 11 9
30 47 47 46 55 54 51 54 68 67 91 100 100 100 100 100 100 100 100 100 100 100 100 99 79 82 99 99 96 83 86 76 63 42 30 22 20 10 10 6 4 5 7 11 12
38 55 50 56 52 66 75 78 100 98 100 100 100 100 100 99 100 100 100 100 100 100 100 100 100 86 100 93 97 92 76 72 69 42 30 20 20 11 9 6 4 5 7 12 13
48 54 55 64 53 55 83 96 100 100 100 100 100 100 100 100 100 100 96 100 100 100 100 100 100 100 100 93 71 96 75 74 63 41 31 20 19 10 8 6 4 4 6 12 14
Wind_Speed
57 57 56 55 54 50 45 45 49 45 43 42 42 42 40 40 43 45 47 49 51 54 56 59 63 66 74 75 79 86 91 98 103 105 113 113 126 134 110 89 80 73 64 58 58
56 57 57 55 51 47 42 40 42 41 42 42 42 41 38 40 46 50 51 54 55 58 60 64 69 72 74 76 81 91 96 102 105 112 116 120 123 115 95 91 78 67 51 47 45
55 54 51 48 44 43 40 39 39 40 43 44 43 39 41 44 48 53 55 57 61 64 66 70 72 77 77 80 84 92 102 105 110 116 121 127 126 102 84 80 68 56 45 36 37
61 57 52 47 45 43 42 41 40 41 44 45 43 39 41 47 53 56 59 61 64 66 67 70 75 75 78 81 89 95 101 108 113 122 120 131 117 97 83 69 59 46 39 31 34
67 64 61 56 52 49 46 46 46 45 45 47 45 48 53 55 55 58 61 64 65 67 67 69 75 77 79 84 89 96 103 110 114 119 120 127 108 93 77 60 51 40 32 27 29
71 70 68 63 59 55 50 50 50 49 50 49 50 53 54 53 56 60 62 64 66 66 65 69 74 75 79 86 95 99 107 112 119 117 124 131 102 87 70 52 41 33 24 21 24
75 64 73 68 66 62 58 54 53 53 53 51 48 52 57 58 59 60 62 66 65 65 64 71 72 75 82 92 94 102 109 111 117 117 127 128 103 85 61 47 37 25 18 16 20
79 77 73 75 69 68 64 63 58 57 56 56 56 56 56 59 60 59 66 61 64 64 68 68 74 78 85 89 95 102 106 116 116 120 127 127 105 84 60 45 32 19 12 13 19
77 79 78 75 74 72 64 62 63 59 57 59 59 59 60 60 61 65 61 61 65 67 67 73 75 81 86 95 99 104 109 116 118 121 127 124 106 79 58 40 26 13 6 9 19
77 74 77 76 72 72 67 68 67 65 66 68 65 65 64 62 62 61 60 63 63 65 71 74 77 82 90 94 96 101 108 117 120 127 129 124 102 72 56 37 21 8 3 10 22
72 79 72 71 74 74 72 70 67 71 71 65 67 65 66 63 67 69 65 63 63 69 69 75 80 84 89 92 97 103 111 112 118 124 133 119 97 65 51 33 19 5 5 13 26
65 70 78 72 74 73 66 71 71 68 68 72 70 61 65 67 68 69 63 64 67 69 72 76 80 83 87 92 96 97 108 110 121 122 127 111 88 63 47 29 14 2 9 15 29
63 62 67 71 70 75 71 74 72 72 72 75 67 66 70 72 69 64 65 66 65 69 72 75 78 83 88 90 95 101 105 110 119 124 122 104 80 61 38 26 10 5 12 21 34
66 62 71 70 73 77 77 77 76 76 76 76 71 72 71 67 68 65 67 64 67 66 72 74 80 83 86 90 92 96 103 109 118 121 110 96 78 58 39 21 7 7 16 26 35
62 64 74 71 73 70 64 67 64 72 73 75 69 65 64 68 62 65 67 64 67 71 71 75 79 81 85 87 92 92 100 109 117 113 104 96 70 56 32 18 6 11 17 30 39
57 62 70 72 67 68 66 67 70 72 73 70 69 69 68 67 66 68 72 66 72 71 73 76 78 79 81 86 87 92 98 106 111 108 97 87 67 55 35 14 6 16 24 33 45
56 59 66 72 67 70 67 68 70 70 70 72 70 71 70 70 69 71 70 70 71 71 73 77 75 78 82 83 86 92 96 102 103 102 95 85 66 52 29 9 8 18 28 39 54
57 56 60 74 69 72 70 74 77 70 72 73 73 70 68 69 71 69 71 69 70 70 76 75 72 73 73 82 86 91 99 101 102 100 94 88 61 49 28 8 11 20 32 47 62
56 57 56 66 80 78 78 71 71 72 79 77 73 71 76 73 68 71 72 73 71 72 73 69 67 69 74 80 85 90 90 93 95 97 92 77 59 47 26 7 13 25 38 56 74
55 57 57 55 64 80 85 88 83 80 76 75 73 76 75 72 71 72 76 77 73 67 68 65 65 67 70 76 81 86 88 88 91 95 94 79 64 50 29 8 15 29 43 60 82
56 55 54 53 53 63 68 78 83 88 81 80 79 77 77 77 72 63 65 65 68 63 59 59 62 65 69 79 82 81 81 84 88 93 90 74 66 45 27 9 17 33 49 69 88
59 54 52 51 49 52 58 67 73 85 82 68 71 72 74 71 65 57 59 59 55 54 55 57 59 65 72 73 73 76 79 81 86 91 90 77 63 37 29 10 20 37 54 77 97
58 55 52 51 49 50 52 56 62 63 64 66 61 62 56 53 57 53 52 54 56 55 54 56 58 62 67 66 70 71 78 79 85 88 88 80 63 37 28 12 23 40 61 86 102
57 51 50 50 46 48 47 52 55 55 56 52 50 50 51 56 57 51 53 54 55 53 52 56 57 62 63 63 66 70 75 78 84 84 85 81 67 45 29 15 25 43 66 93 106
54 47 46 45 45 45 47 49 52 52 51 49 48 49 53 60 60 57 54 53 50 47 51 52 58 59 58 61 66 73 74 78 82 85 82 79 69 44 27 15 25 45 68 97 107
51 47 46 46 44 44 47 49 49 53 51 50 53 56 57 58 60 54 51 52 49 51 50 53 53 55 59 60 68 70 75 77 80 84 82 78 66 47 25 16 26 45 67 94 109
50 47 46 45 46 46 48 51 53 53 55 54 55 56 57 58 52 50 52 50 50 47 49 53 53 54 57 62 71 71 73 75 79 81 83 79 59 45 26 15 26 42 62 91 108
Wind_Direction
279 281 284 287 291 293 295 298 300 301 302 303 305 307 303 299 299 301 301 306 311 315 317 318 321 323 326 322 320 320 322 324 325 325 327 325 328 324 316 312 308 301 297 288 280
277 278 279 282 285 288 290 292 297 298 301 303 303 304 303 295 300 302 303 307 311 316 318 320 321 324 326 323 322 322 324 327 327 326 329 327 331 327 317 313 312 306 300 285 277
277 277 277 280 283 285 287 289 291 296 300 303 302 300 294 292 297 302 305 308 312 316 318 320 323 328 327 324 320 322 324 328 327 328 330 330 333 322 320 316 315 310 300 281 271
272 274 275 275 277 281 285 285 286 288 292 296 296 300 290 294 300 303 306 308 313 317 321 321 324 327 323 318 321 323 327 327 327 330 331 335 335 326 323 321 316 307 295 274 258
272 272 272 272 272 275 278 283 285 287 289 294 298 288 294 299 300 303 306 309 314 317 320 321 324 327 322 319 322 327 327 328 329 330 332 339 334 326 325 325 315 303 288 266 243
269 273 272 273 271 272 275 280 284 288 292 294 291 294 295 296 300 304 307 310 313 316 320 320 323 322 321 322 325 326 328 330 329 330 336 342 333 332 327 329 313 300 283 263 241
264 267 271 271 272 272 274 277 282 288 292 296 293 289 292 297 301 304 308 311 313 316 317 318 323 318 318 323 326 328 330 328 329 331 339 343 334 336 331 333 313 302 285 261 236
262 263 266 270 273 274 277 276 278 284 289 290 289 292 295 301 303 304 309 310 313 315 316 319 320 317 320 323 325 328 328 329 332 334 338 343 336 337 337 334 317 304 292 248 217
260 263 263 268 273 272 277 278 276 280 284 282 285 291 295 298 299 304 307 310 314 314 315 318 318 320 321 323 326 329 329 331 332 335 338 344 338 338 339 335 318 301 283 229 200
257 259 262 264 269 272 273 274 277 279 278 281 286 290 290 296 297 302 304 307 309 312 314 318 321 320 319 325 327 328 330 330 333 335 337 343 339 340 341 335 317 297 232 199 186
253 249 254 261 261 262 271 272 275 277 282 282 288 290 291 294 293 297 302 305 309 311 315 317 320 320 322 322 327 329 331 332 334 335 338 343 340 341 340 331 319 297 174 182 175
250 252 251 257 259 259 266 267 274 277 278 281 287 285 287 290 293 296 300 302 305 310 313 318 320 318 321 324 326 328 331 331 332 335 340 343 342 341 342 333 319 221 160 171 161
250 248 253 250 255 259 260 263 269 271 277 280 280 282 285 290 292 294 298 302 305 308 314 318 318 318 320 323 325 327 330 330 333 335 341 343 343 340 345 329 312 171 161 166 160
250 241 245 248 252 254 262 266 270 273 277 275 279 283 284 287 290 292 296 300 303 310 311 314 316 318 321 322 325 328 329 331 333 338 344 344 344 343 342 329 297 168 168 163 162
248 243 240 249 255 264 261 263 266 271 273 277 281 280 281 289 288 292 297 297 303 307 310 315 316 316 318 322 325 325 328 331 333 338 347 346 348 343 345 330 269 168 173 165 160
250 244 237 244 248 253 254 259 259 267 274 275 278 280 285 286 287 291 295 297 304 305 309 313 315 313 317 321 322 325 330 332 332 339 348 349 351 344 343 327 239 172 171 162 159
253 246 236 239 242 248 252 249 255 266 262 266 273 282 283 282 288 292 293 296 301 303 308 312 312 312 318 321 322 327 331 331 333 341 351 349 350 344 341 315 217 175 168 165 161
253 250 241 233 235 240 244 248 261 258 259 267 274 279 278 281 286 289 292 293 298 301 304 307 309 311 315 317 320 326 328 332 336 341 348 350 349 349 334 297 204 175 168 167 162
254 252 245 238 237 238 240 250 251 252 260 265 272 272 281 281 284 287 290 292 295 299 304 305 308 311 315 318 322 326 330 334 336 339 346 353 348 350 338 279 199 175 173 168 163
253 253 253 247 244 242 245 246 253 257 255 264 265 268 277 276 280 282 290 291 292 297 302 302 306 312 315 319 323 327 332 335 335 338 343 353 346 352 331 270 198 177 176 171 167
257 256 256 254 249 246 250 252 251 254 259 265 266 266 270 280 286 290 287 290 292 295 298 301 307 312 315 320 322 327 332 333 334 337 343 357 345 350 334 270 200 181 178 171 170
255 255 255 255 254 251 251 252 253 255 259 262 262 267 275 277 282 279 286 288 290 293 298 304 308 310 318 320 325 330 331 332 332 335 341 352 347 353 336 273 200 186 179 173 174
252 254 254 257 259 257 253 252 253 253 254 259 265 268 269 271 272 279 282 283 289 292 297 304 308 313 318 321 325 328 330 330 331 335 340 347 343 347 336 276 200 188 181 178 176
251 253 255 257 256 255 252 249 250 251 252 256 258 260 265 268 273 276 278 282 287 291 298 302 311 314 318 320 324 326 328 328 329 334 339 344 343 341 342 272 204 192 184 181 178
250 250 252 252 249 249 247 246 249 248 250 253 254 254 265 270 273 274 278 284 286 293 299 307 311 315 316 319 323 325 326 326 328 334 337 341 343 338 345 279 210 194 189 187 183
245 247 247 246 247 243 245 246 246 245 245 249 250 255 264 265 268 271 282 285 287 293 302 306 307 313 314 317 322 322 324 325 327 333 335 339 344 334 340 289 218 198 194 193 188
242 245 244 242 240 235 239 244 244 246 246 248 252 255 260 264 264 278 284 284 286 293 302 304 307 310 311 315 320 320 322 323 326 331 334 338 343 331 340 297 225 203 197 194 191